Weather History for Starkville, MS

Change the Weather History Date:

Saturday, January 4, 2014

  Actual Average Record
Temperature  
Mean Temperature 36 °F -  
Max Temperature 51 °F 52 °F 60 °F (2012)
Min Temperature 21 °F 32 °F 21 °F (2014)
Degree Days  
Heating Degree Days 29    
Moisture  
Dew Point 27 °F    
Average Humidity 71    
Maximum Humidity 93    
Minimum Humidity 50    
Precipitation  
Precipitation 0.00 in - - ()
Sea Level Pressure  
Sea Level Pressure 30.19 in    
Wind  
Wind Speed 6 mph (SE)    
Max Wind Speed 13 mph    
Max Gust Speed 17 mph    
Visibility 10 miles    
Events      
Averages and records for this station are not official NWS values.
T = Trace of Precipitation, MM = Missing Value Source: NWS Daily Summary

Daily Weather History Graph

Daily Weather History Graph

Search for Another Location

Airport:

Trip Planner

Search our weather history database for the weather conditions in past years. The results will help you decide how hot, cold, wet, or windy it might be!

Date:

Astronomy

Jan. 04, 2014 Rise Set
Actual Time 6:59 AM CST 5:01 PM CST
Civil Twilight 6:32 AM CST 5:28 PM CST
Nautical Twilight 6:01 AM CST 5:59 PM CST
Astronomical Twilight 5:31 AM CST 6:29 PM CST
Moon 9:17 AM CST (1/4) 9:07 PM CST (1/4)
Length of Visible Light 10h 55m
Length of Day
10h 01m
Waxing Crescent, 15% of the Moon is Illuminated
Jan 4
Waxing Crescent
Jan 7
First Quarter
Jan 15
Full
Jan 23
Last Quarter
Jan 30
New

Hourly Weather History & Observations

Time (CST) Temp. Windchill Dew Point Humidity Pressure Visibility Wind Dir Wind Speed Gust Speed Precip Events Conditions
12:15 AM 24.8 °F 19.1 °F 17.6 °F 74% 30.29 in 10.0 mi SSE 4.6 mph - N/A   Clear
12:35 AM 24.8 °F 19.1 °F 17.6 °F 74% 30.28 in 10.0 mi SSE 4.6 mph - N/A   Clear
12:55 AM 23.0 °F 17.0 °F 19.4 °F 86% 30.28 in 10.0 mi SSE 4.6 mph - N/A   Clear
1:15 AM 23.0 °F 15.8 °F 19.4 °F 86% 30.28 in 10.0 mi SSE 5.8 mph - N/A   Clear
1:35 AM 23.0 °F 15.8 °F 19.4 °F 86% 30.28 in 10.0 mi SSE 5.8 mph - N/A   Clear
1:55 AM 23.0 °F 17.0 °F 17.6 °F 80% 30.29 in 10.0 mi SSE 4.6 mph - N/A   Clear
2:15 AM 23.0 °F 18.4 °F 17.6 °F 80% 30.29 in 10.0 mi SSE 3.5 mph - N/A   Clear
2:35 AM 23.0 °F 18.4 °F 17.6 °F 80% 30.30 in 10.0 mi SE 3.5 mph - N/A   Clear
2:55 AM 23.0 °F - 17.6 °F 80% 30.30 in 10.0 mi Calm Calm - N/A   Clear
3:15 AM 23.0 °F 17.0 °F 17.6 °F 80% 30.30 in 10.0 mi SE 4.6 mph - N/A   Clear
3:35 AM 23.0 °F - 17.6 °F 80% 30.30 in 10.0 mi Calm Calm - N/A   Clear
3:55 AM 23.0 °F - 17.6 °F 80% 30.29 in 10.0 mi Calm Calm - N/A   Clear
4:15 AM 23.0 °F 18.4 °F 17.6 °F 80% 30.29 in 10.0 mi SE 3.5 mph - N/A   Clear
4:35 AM 24.8 °F 19.1 °F 17.6 °F 74% 30.29 in 10.0 mi SE 4.6 mph - N/A   Clear
4:55 AM 23.0 °F 18.4 °F 17.6 °F 80% 30.29 in 10.0 mi SE 3.5 mph - N/A   Clear
5:15 AM 23.0 °F - 17.6 °F 80% 30.29 in 10.0 mi Calm Calm - N/A   Clear
5:35 AM 21.2 °F - 17.6 °F 86% 30.29 in 10.0 mi Calm Calm - N/A   Clear
5:55 AM 23.0 °F - 17.6 °F 80% 30.29 in 10.0 mi Calm Calm - N/A   Clear
6:15 AM 21.2 °F - 17.6 °F 86% 30.29 in 10.0 mi Calm Calm - N/A   Clear
6:35 AM 21.2 °F - 17.6 °F 86% 30.29 in 10.0 mi Calm Calm - N/A   Clear
6:55 AM 21.2 °F 16.4 °F 17.6 °F 86% 30.29 in 10.0 mi SSE 3.5 mph - N/A   Clear
7:15 AM 21.2 °F 14.9 °F 19.4 °F 93% 30.29 in 10.0 mi SSE 4.6 mph - N/A   Clear
7:35 AM 24.8 °F 16.9 °F 19.4 °F 80% 30.29 in 10.0 mi SE 6.9 mph - N/A   Clear
7:55 AM 26.6 °F 17.5 °F 21.2 °F 80% 30.29 in 10.0 mi SE 9.2 mph - N/A   Clear
8:15 AM 28.4 °F 19.1 °F 21.2 °F 74% 30.30 in 10.0 mi SSE 10.4 mph - N/A   Clear
8:35 AM 28.4 °F 20.4 °F 21.2 °F 74% 30.30 in 10.0 mi SSE 8.1 mph - N/A   Clear
8:55 AM 30.2 °F 22.6 °F 21.2 °F 69% 30.30 in 10.0 mi SSE 8.1 mph - N/A   Clear
9:15 AM 32.0 °F 23.0 °F 21.2 °F 64% 30.30 in 10.0 mi SSE 11.5 mph - N/A   Clear
9:35 AM 32.0 °F 23.6 °F 21.2 °F 64% 30.30 in 10.0 mi SSE 10.4 mph 17.3 mph N/A   Clear
9:55 AM 33.8 °F 26.4 °F 23.0 °F 65% 30.29 in 10.0 mi SSE 9.2 mph - N/A   Clear
10:15 AM 35.6 °F 27.1 °F 23.0 °F 60% 30.28 in 10.0 mi SSE 12.7 mph - N/A   Clear
10:35 AM 37.4 °F 30.8 °F 26.6 °F 65% 30.27 in 10.0 mi SE 9.2 mph - N/A   Clear
10:55 AM 39.2 °F 31.6 °F 26.6 °F 61% 30.27 in 10.0 mi SE 12.7 mph - N/A   Clear
11:15 AM 41.0 °F 35.2 °F 26.6 °F 57% 30.26 in 10.0 mi SSE 9.2 mph 16.1 mph N/A   Clear
11:35 AM 42.8 °F 37.0 °F 28.4 °F 57% 30.24 in 10.0 mi SSE 10.4 mph - N/A   Clear
11:55 AM 42.8 °F 38.0 °F 30.2 °F 61% 30.22 in 10.0 mi SE 8.1 mph - N/A   Clear
12:15 PM 44.6 °F 38.8 °F 30.2 °F 57% 30.20 in 10.0 mi SSE 11.5 mph - N/A   Clear
12:35 PM 44.6 °F 38.8 °F 32.0 °F 61% 30.19 in 10.0 mi SE 11.5 mph - N/A   Clear
12:55 PM 46.4 °F 41.5 °F 32.0 °F 57% 30.17 in 10.0 mi SSE 10.4 mph - N/A   Clear
1:15 PM 46.4 °F 40.7 °F 32.0 °F 57% 30.15 in 10.0 mi SE 12.7 mph 16.1 mph N/A   Clear
1:35 PM 48.2 °F - 32.0 °F 54% 30.14 in 10.0 mi SSE 10.4 mph 16.1 mph N/A   Clear
1:55 PM 50.0 °F - 32.0 °F 50% 30.13 in 10.0 mi SSE 8.1 mph - N/A   Clear
2:15 PM 50.0 °F - 32.0 °F 50% 30.13 in 10.0 mi SSE 11.5 mph - N/A   Clear
2:35 PM 50.0 °F - 33.8 °F 54% 30.12 in 10.0 mi SE 10.4 mph 17.3 mph N/A   Clear
2:55 PM 50.0 °F - 33.8 °F 54% 30.10 in 10.0 mi SE 10.4 mph - N/A   Clear
3:15 PM 51.8 °F - 33.8 °F 50% 30.10 in 10.0 mi SE 11.5 mph - N/A   Clear
3:35 PM 51.8 °F - 33.8 °F 50% 30.10 in 10.0 mi SE 10.4 mph 16.1 mph N/A   Clear
3:55 PM 50.0 °F - 33.8 °F 54% 30.10 in 10.0 mi ESE 9.2 mph - N/A   Clear
4:15 PM 50.0 °F - 33.8 °F 54% 30.09 in 10.0 mi SE 9.2 mph - N/A   Clear
4:35 PM 48.2 °F - 33.8 °F 58% 30.09 in 10.0 mi SE 11.5 mph - N/A   Clear
4:55 PM 46.4 °F 41.1 °F 33.8 °F 62% 30.08 in 10.0 mi SE 11.5 mph - N/A   Clear
5:15 PM 44.6 °F 40.2 °F 33.8 °F 66% 30.08 in 10.0 mi SE 8.1 mph - N/A   Clear
5:35 PM 44.6 °F 40.2 °F 33.8 °F 66% 30.08 in 10.0 mi SE 8.1 mph - N/A   Clear
5:55 PM 42.8 °F 37.5 °F 33.8 °F 70% 30.08 in 10.0 mi SE 9.2 mph - N/A   Clear
6:15 PM 42.8 °F 38.0 °F 33.8 °F 70% 30.09 in 10.0 mi SE 8.1 mph - N/A   Clear
6:35 PM 42.8 °F 37.5 °F 33.8 °F 70% 30.08 in 10.0 mi SE 9.2 mph - N/A   Clear
6:55 PM 41.0 °F 36.4 °F 33.8 °F 76% 30.08 in 10.0 mi SSE 6.9 mph - N/A   Clear
7:15 PM 41.0 °F 36.4 °F 33.8 °F 76% 30.07 in 10.0 mi SSE 6.9 mph - N/A   Clear
7:35 PM 41.0 °F 35.2 °F 33.8 °F 76% 30.07 in 10.0 mi SE 9.2 mph - N/A   Clear
7:55 PM 41.0 °F 36.4 °F 33.8 °F 76% 30.08 in 10.0 mi SSE 6.9 mph - N/A   Clear
8:15 PM 41.0 °F 35.8 °F 33.8 °F 76% 30.08 in 10.0 mi SE 8.1 mph - N/A   Clear
8:35 PM 41.0 °F 35.8 °F 35.6 °F 81% 30.08 in 10.0 mi SSE 8.1 mph - N/A   Clear
8:55 PM 41.0 °F 34.7 °F 35.6 °F 81% 30.07 in 10.0 mi SE 10.4 mph - N/A   Clear
9:15 PM 41.0 °F 33.9 °F 33.8 °F 76% 30.07 in 10.0 mi SE 12.7 mph - N/A   Clear
9:35 PM 42.8 °F 36.6 °F 33.8 °F 70% 30.07 in 10.0 mi SSE 11.5 mph 17.3 mph N/A   Clear
9:55 PM 42.8 °F 37.0 °F 33.8 °F 70% 30.07 in 10.0 mi SE 10.4 mph - N/A   Clear
10:15 PM 41.0 °F 34.3 °F 33.8 °F 76% 30.07 in 10.0 mi SE 11.5 mph - N/A   Clear
10:35 PM 41.0 °F 35.2 °F 33.8 °F 76% 30.07 in 10.0 mi SE 9.2 mph - N/A   Clear
10:55 PM 41.0 °F 35.2 °F 33.8 °F 76% 30.08 in 10.0 mi SE 9.2 mph - N/A   Clear
11:15 PM 41.0 °F 37.1 °F 33.8 °F 76% 30.08 in 10.0 mi SSE 5.8 mph - N/A   Clear
11:35 PM 37.4 °F 33.8 °F 33.8 °F 87% 30.08 in 10.0 mi SE 4.6 mph - N/A   Clear
11:55 PM 37.4 °F 32.8 °F 33.8 °F 87% 30.07 in 10.0 mi SE 5.8 mph - N/A   Clear